星链-36431(STARLINK-36431)

导读

STARLINK-36431是美国太空探索技术公司星链星座的卫星,于2026年1月12日发射升空,归属美国所有。星链项目旨在构建全球卫星互联网通信系统,这颗卫星加入后将进一步扩充星座规模,提升全球尤其是偏远地区的互联网覆盖能力,推动低轨卫星互联网服务的普及与发展。

基本信息
目录编号:
67421
目录名称:
STARLINK-36431
国际标识:
2026-005T
轨道中心:
EARTH
卫星名称:
星链-36431
卫星全名:
星链-36431(STARLINK-36431)
卫星状态:
在轨 (已飞行235 天)
发射日期:
2026-01-12 UTC
国别 :
美国 (US)
星等 :
--
轨道信息
数据来源 国际轨道数据
星历时间: 2026-09-04T12:48:31+0800
7小时前
查看轨道信息
半长轴: 6861.2km
偏心率: 0.00013
轨道倾角: 43.002°
近地点辐角 276.929°
升交点赤经 310.176°
平近点角 83.141°
近地点: 482.171km
远地点: 483.955km
周期: 94.267分钟
每日圈数: 15.275754
详细信息
固有亮度:
5
最大亮度:
2.5
卫星平台:
Starlink V1.0
覆盖范围:
全球
运营商:
太空探索技术公司
运营商所在国:
美国
制造商(研发单位):
太空探索技术公司
制造商所在国:
美国
使用方式:
暂无
卫星简介
Starlink 计划是 SpaceX 推出的全球卫星互联网项目,通过发射低轨道卫星,为全球尤其是偏远地区提供高速、低延迟的互联网服务。自 2019 年起,Starlink 已部署数千颗卫星,旨在缩小全球数字鸿沟,推动互联网普及。该项目还为军事、航空等行业提供通信支持,带来广泛经济效益。
2D轨道图
3D轨道图
轨道高度分析图
轨道倾角分析图
轨道综合分析图
查看轨道综合分析图
交会数据列表
事件ID 空间交会对象 最接近时刻(TCA) 交会距离 交会风险概率(CRP) 交会风险指数(CRI) 操作
CDM_260905-173105-864506-742121
2026-09-05T
17:31:22+0000
1.130 km
极远距离
1.1294E-5 中风险 0.56
CDM_260906-001905-245306-742121
2026-09-06T
00:19:33+0000
2.150 km
极远距离
1.07162E-6 低风险 0.36
CDM_260905-222306-434806-742121
2026-09-05T
22:23:12+0000
2.631 km
极远距离
7.21893E-7 极低风险 0.32
CDM_260905-213606-434806-742121
2026-09-05T
21:36:06+0000
2.783 km
极远距离
6.697403E-7 极低风险 0.32